[[{"header":{"parameterUnit":"m.s-1","parameterCategory":1,"la1":30.2992,"la2":30.254,"lo1":-89.0895,"lo2":-89.0443,"dy":0.0025,"dx":0.0025,"nx":19,"ny":19,"refTime":"2026-03-10T09:00:00:Z","depth":0,"parameterNumber":2,"parameterNumberName":"U-component_of_WINDS"},"data":[0,0,0,0.5849,0.5849,0.5838,0.5838,0.5829,0.5829,0,0,0,0,0,0,0,0,0,0,0,0.5855,0.5856,0.5849,0.5849,0.5838,0.5838,0.5829,0.5829,0,0,0,0,0,0,0,0,0,0,0,0.5855,0.5856,0.5856,0.5849,0.5838,0.5838,0.5829,0.5836,0,0,0,0,0,0,0,0,0,0,0.5845,0.5854,0.5856,0.5856,0.5849,0.5838,0.5838,0.5836,0.5835,0.5836,0,0.5837,0,0.5833,0.5829,0.5829,0,0,0,0.5847,0.5854,0.5849,0.5856,0.5849,0.5838,0.5843,0.5835,0.5835,0.5835,0.5837,0.5837,0.5833,0.5829,0.5829,0.584,0.584,0,0,0.5848,0.5855,0.5849,0.5848,0.585,0.5843,0.5842,0.5835,0.5838,0.5837,0.5836,0.5833,0.5829,0.5828,0.584,0.584,0,0,0,0.5851,0.5856,0.585,0.5849,0.5847,0.5843,0.5842,0.5838,0.5836,0.5836,0.5833,0.5828,0.5828,0.584,0.584,0.5855,0,0,0,0.5851,0.5857,0.585,0.5855,0.5847,0.5842,0.5845,0.5836,0.5835,0.5833,0.5828,0.5828,0.584,0.584,0.5854,0.586,0,0,0,0.5855,0.5858,0.5857,0.5855,0.5851,0.5842,0.5839,0.5836,0.5833,0.5829,0.5828,0.584,0.584,0.5853,0.5859,0.5865,0,0,0,0.5862,0.587,0.5858,0.5866,0.5851,0.5851,0.5839,0.5839,0.5837,0.5828,0.584,0.584,0.5853,0.5858,0.5865,0.5872,0.5875,0,0,0.5877,0.5873,0.5877,0.5865,0.587,0.5852,0.5859,0.585,0.5843,0.5842,0.5842,0.5854,0.5859,0.5865,0.5894,0.5897,0,0,0,0.5884,0.5887,0.5887,0.5885,0.5879,0.5874,0.5864,0.586,0.5859,0.5844,0.5858,0.5861,0.5864,0.5867,0.587,0.5872,0.5842,0.5842,0.5842,0.5916,0.5906,0.5913,0.5902,0.5901,0.589,0.5888,0.5882,0.5873,0.5876,0.5876,0.5894,0.5898,0.59,0.5902,0.5879,0.5879,0.5879,0.5879,0.5937,0.594,0.5927,0.5929,0.5919,0.5921,0.5911,0.5904,0.5904,0.5894,0.5896,0.5886,0.5904,0.5905,0.588,0.588,0.588,0.588,0.5879,0.5956,0.5956,0.5952,0.5949,0.5948,0.5936,0.5937,0.5928,0.5919,0.5922,0.592,0.592,0.5918,0.5922,0.5922,0.5922,0.5922,0.5922,0.5922,0.5977,0.5972,0.5974,0.5968,0.5966,0.5962,0.5952,0.5949,0.5944,0.5938,0.5938,0.5928,0.5907,0.5902,0.5923,0.5923,0.5922,0.5922,0.5922,0.6001,0.5994,0.5997,0.5995,0.5987,0.5986,0.5975,0.5971,0.5968,0.5968,0.5958,0.5945,0.594,0.5937,0.5933,0.5961,0.5961,0.5961,0.5961,0.6017,0.6014,0.6014,0.6011,0.6008,0.5998,0.6001,0.5993,0.5983,0.5981,0.5976,0.5969,0.5967,0.5963,0.5961,0.5956,0.5989,0.5989,0.5989,0.6031,0.6027,0.6031,0.6022,0.6016,0.601,0.6013,0.601,0.5998,0.599,0.5979,0.5977,0.5967,0.5964,0.5955,0.5951,0.5943,0,0]},{"header":{"parameterUnit":"m.s-1","parameterCategory":1,"la1":30.2992,"la2":30.254,"lo1":-89.0895,"lo2":-89.0443,"dy":0.0025,"dx":0.0025,"nx":19,"ny":19,"refTime":"2026-03-10T09:00:00:Z","depth":0,"parameterNumber":3,"parameterNumberName":"V-component_of_WINDS"},"data":[0,0,0,3.7062,3.7064,3.712,3.712,3.7194,3.7195,0,0,0,0,0,0,0,0,0,0,0,3.7048,3.7048,3.7062,3.7064,3.712,3.712,3.7194,3.7195,0,0,0,0,0,0,0,0,0,0,0,3.7047,3.7048,3.7049,3.7064,3.712,3.712,3.7194,3.715,0,0,0,0,0,0,0,0,0,0,3.7095,3.7084,3.7048,3.7049,3.7064,3.712,3.712,3.7148,3.7153,3.717,0,3.7186,0,3.7192,3.72,3.72,0,0,0,3.7062,3.708,3.7093,3.7049,3.7065,3.712,3.7094,3.7151,3.7156,3.7176,3.7187,3.7189,3.7193,3.7201,3.7201,3.7307,3.7307,0,0,3.7059,3.7058,3.709,3.7097,3.709,3.7092,3.7096,3.7154,3.7165,3.7187,3.7191,3.7194,3.7201,3.7202,3.7306,3.7307,0,0,0,3.7051,3.7056,3.7069,3.7094,3.7104,3.7094,3.7098,3.7163,3.7167,3.7192,3.7195,3.7201,3.7202,3.7305,3.7306,3.7337,0,0,0,3.7049,3.7052,3.7067,3.7068,3.7103,3.7134,3.7105,3.7163,3.7169,3.7195,3.7202,3.7203,3.7305,3.7306,3.7335,3.7351,0,0,0,3.7043,3.7051,3.706,3.7067,3.7092,3.7134,3.7141,3.7164,3.7171,3.72,3.7203,3.7304,3.7306,3.7333,3.7348,3.7381,0,0,0,3.7036,3.7084,3.7061,3.7115,3.7091,3.7152,3.7141,3.7185,3.7213,3.7202,3.7305,3.7306,3.7332,3.7346,3.7379,3.741,3.7422,0,0,3.7097,3.7092,3.7124,3.7104,3.717,3.7143,3.7213,3.7237,3.7239,3.7284,3.7286,3.7335,3.7348,3.7381,3.749,3.75,0,0,0,3.7143,3.7166,3.7184,3.7212,3.7233,3.7254,3.7268,3.7278,3.7316,3.7263,3.7355,3.7362,3.7382,3.7397,3.7405,3.7422,3.7313,3.7312,3.7312,3.7228,3.723,3.7284,3.7293,3.732,3.7336,3.7359,3.7374,3.7366,3.7388,3.7402,3.7468,3.7485,3.7492,3.751,3.7416,3.7417,3.7417,3.7417,3.7318,3.7353,3.7343,3.7392,3.7394,3.7435,3.7452,3.7445,3.7484,3.7457,3.7474,3.7446,3.7502,3.7518,3.7419,3.7419,3.7418,3.7418,3.7418,3.7376,3.7393,3.7405,3.7447,3.7479,3.7486,3.7524,3.7523,3.7522,3.7538,3.7554,3.7554,3.7555,3.7546,3.7546,3.7546,3.7546,3.7547,3.7547,3.7431,3.7444,3.7477,3.7506,3.7525,3.7549,3.7567,3.7585,3.7605,3.7601,3.7601,3.7592,3.7507,3.7487,3.755,3.755,3.7549,3.7549,3.7549,3.7525,3.7504,3.7556,3.7575,3.7609,3.7643,3.7641,3.7679,3.7693,3.7713,3.77,3.7637,3.7631,3.7624,3.7608,3.7698,3.7698,3.7698,3.7698,3.7575,3.7573,3.7626,3.7658,3.7688,3.7692,3.7751,3.7765,3.7776,3.7785,3.7772,3.7749,3.7742,3.774,3.7731,3.7716,3.7832,3.7832,3.7832,3.7634,3.7635,3.7685,3.7698,3.7725,3.7748,3.7804,3.784,3.7847,3.7838,3.7793,3.7788,3.7751,3.7738,3.7729,3.7715,3.7687,0,0]}]]